DLH325 LKPR-EDDF

Flight info

Callsign DLH325
Flight time 0h 50m
Altitude 30000
Route BALTU DCT DONAD DCT RAPET T170 VAGAB/N0401F240 T170 GAPLA T178 KERAX KERAX5A
Aircraft A21N/M-SDE2E3FGHIRWXY/LB1

Departure

Time 2026-04-15 20:37
Airport Václav Havel Airport Prague (LKPR)

Arrival

Time 2026-04-15 21:27
Airport Frankfurt Main Airport (EDDF)
Time Latitude Longitude Altitude Speed Heading
2026-04-15 20:23 50.10709 14.26374 1172 ft 0 kts 214°
2026-04-15 20:28 50.10721 14.26387 1172 ft 4 kts 216°
2026-04-15 20:28 50.10738 14.26413 1172 ft 4 kts 259°
2026-04-15 20:28 50.10738 14.26428 1174 ft 0 kts 304°
2026-04-15 20:28 50.10749 14.26403 1173 ft 4 kts 304°
2026-04-15 20:29 50.10765 14.26368 1173 ft 4 kts 305°
2026-04-15 20:29 50.10778 14.26339 1175 ft 1 kts 305°
2026-04-15 20:29 50.10778 14.26338 1175 ft 0 kts 305°
2026-04-15 20:32 50.10797 14.26289 1173 ft 13 kts 287°
2026-04-15 20:32 50.10737 14.26184 1173 ft 16 kts 214°
2026-04-15 20:32 50.10640 14.26083 1172 ft 17 kts 214°
2026-04-15 20:33 50.10547 14.25990 1176 ft 14 kts 212°
2026-04-15 20:33 50.10473 14.26030 1175 ft 15 kts 126°
2026-04-15 20:33 50.10381 14.26222 1178 ft 29 kts 127°
2026-04-15 20:33 50.10260 14.26472 1175 ft 28 kts 127°
2026-04-15 20:34 50.10142 14.26714 1183 ft 29 kts 127°
2026-04-15 20:34 50.10063 14.26880 1193 ft 27 kts 127°
2026-04-15 20:34 50.09826 14.27353 1207 ft 28 kts 136°
2026-04-15 20:35 50.09686 14.27569 1210 ft 31 kts 135°
2026-04-15 20:35 50.09535 14.27802 1215 ft 31 kts 135°
2026-04-15 20:35 50.09380 14.28040 1218 ft 32 kts 136°
2026-04-15 20:35 50.09218 14.28266 1215 ft 31 kts 156°
2026-04-15 20:36 50.09086 14.28101 1211 ft 28 kts 283°
2026-04-15 20:36 50.09252 14.27738 1215 ft 69 kts 307°
2026-04-15 20:36 50.09672 14.26870 1211 ft 133 kts 307°
2026-04-15 20:36 50.10344 14.25473 1288 ft 177 kts 306°
2026-04-15 20:37 50.11080 14.23949 1896 ft 176 kts 306°
2026-04-15 20:37 50.11823 14.22415 2621 ft 176 kts 306°
2026-04-15 20:37 50.12565 14.20881 3193 ft 184 kts 306°
2026-04-15 20:37 50.13382 14.19189 3453 ft 206 kts 306°
2026-04-15 20:38 50.14287 14.17310 3646 ft 229 kts 306°
2026-04-15 20:38 50.15299 14.15208 3867 ft 254 kts 306°
2026-04-15 20:38 50.16378 14.12967 4439 ft 260 kts 306°
2026-04-15 20:38 50.17470 14.10699 5237 ft 261 kts 306°
2026-04-15 20:39 50.18564 14.08422 6122 ft 264 kts 306°
2026-04-15 20:39 50.19607 14.06059 7043 ft 265 kts 297°
2026-04-15 20:39 50.20255 14.03368 7931 ft 267 kts 282°
2026-04-15 20:39 50.20548 14.00491 8854 ft 269 kts 275°
2026-04-15 20:40 50.20658 13.97615 9751 ft 271 kts 271°
2026-04-15 20:40 50.20664 13.94628 10556 ft 279 kts 269°
2026-04-15 20:40 50.20624 13.91482 10906 ft 301 kts 269°
2026-04-15 20:40 50.20568 13.88098 11225 ft 323 kts 269°
2026-04-15 20:41 50.20518 13.84485 11614 ft 340 kts 269°
2026-04-15 20:41 50.20481 13.80732 12249 ft 349 kts 269°
2026-04-15 20:41 50.20456 13.76918 13020 ft 354 kts 270°
2026-04-15 20:41 50.20437 13.73056 13819 ft 358 kts 270°
2026-04-15 20:42 50.20422 13.69149 14542 ft 362 kts 270°
2026-04-15 20:42 50.20406 13.65258 15269 ft 365 kts 270°
2026-04-15 20:42 50.20389 13.61287 15999 ft 368 kts 270°
2026-04-15 20:42 50.20370 13.57281 16711 ft 371 kts 270°
2026-04-15 20:43 50.20349 13.53239 17408 ft 374 kts 270°
2026-04-15 20:43 50.20326 13.49150 18091 ft 377 kts 270°
2026-04-15 20:43 50.20300 13.45043 18718 ft 380 kts 270°
2026-04-15 20:43 50.20273 13.40895 19263 ft 384 kts 270°
2026-04-15 20:44 50.20243 13.36707 19812 ft 387 kts 270°
2026-04-15 20:44 50.20212 13.32487 20362 ft 390 kts 270°
2026-04-15 20:44 50.20180 13.28237 20901 ft 393 kts 270°
2026-04-15 20:44 50.20146 13.24021 21419 ft 395 kts 270°
2026-04-15 20:45 50.20109 13.19714 21936 ft 398 kts 270°
2026-04-15 20:45 50.20071 13.15369 22452 ft 401 kts 270°
2026-04-15 20:45 50.20031 13.10987 22984 ft 404 kts 270°
2026-04-15 20:45 50.19989 13.06584 23507 ft 407 kts 270°
2026-04-15 20:46 50.19945 13.02155 23967 ft 410 kts 270°
2026-04-15 20:46 50.19899 12.97683 24365 ft 413 kts 270°
2026-04-15 20:46 50.19852 12.93165 24753 ft 417 kts 270°
2026-04-15 20:46 50.19802 12.88611 25079 ft 421 kts 270°
2026-04-15 20:47 50.19750 12.84083 25462 ft 423 kts 270°
2026-04-15 20:47 50.19696 12.79476 25847 ft 426 kts 270°
2026-04-15 20:47 50.19639 12.74831 26209 ft 429 kts 270°
2026-04-15 20:47 50.19579 12.70168 26562 ft 431 kts 270°
2026-04-15 20:48 50.19518 12.65472 26915 ft 434 kts 270°
2026-04-15 20:48 50.19454 12.60755 27245 ft 436 kts 270°
2026-04-15 20:48 50.19388 12.56002 27545 ft 439 kts 270°
2026-04-15 20:48 50.19321 12.51226 27830 ft 441 kts 270°
2026-04-15 20:49 50.19250 12.46426 28236 ft 441 kts 270°
2026-04-15 20:49 50.19178 12.41645 28678 ft 440 kts 270°
2026-04-15 20:49 50.19239 12.36876 29107 ft 438 kts 276°
2026-04-15 20:49 50.19693 12.32189 29524 ft 436 kts 284°
2026-04-15 20:50 50.20504 12.27697 29933 ft 435 kts 288°
2026-04-15 20:50 50.21448 12.23203 30180 ft 436 kts 290°
2026-04-15 20:50 50.22453 12.18744 30209 ft 435 kts 291°
2026-04-15 20:51 50.24529 12.09864 30210 ft 435 kts 291°
2026-04-15 20:51 50.26593 12.00995 30205 ft 434 kts 290°
2026-04-15 20:52 50.28639 11.92129 30214 ft 434 kts 290°
2026-04-15 20:52 50.30675 11.83240 30210 ft 434 kts 290°
2026-04-15 20:53 50.32703 11.74342 30212 ft 434 kts 290°
2026-04-15 20:53 50.34709 11.65500 30206 ft 434 kts 290°
2026-04-15 20:54 50.36722 11.56593 30205 ft 434 kts 289°
2026-04-15 20:54 50.38733 11.47659 30197 ft 434 kts 289°
2026-04-15 20:55 50.40734 11.38727 30193 ft 434 kts 289°
2026-04-15 20:55 50.42729 11.29782 30183 ft 435 kts 289°
2026-04-15 20:56 50.44716 11.20822 30186 ft 435 kts 289°
2026-04-15 20:56 50.46697 11.11854 30192 ft 435 kts 288°
2026-04-15 20:57 50.48671 11.02874 30190 ft 435 kts 288°
2026-04-15 20:57 50.50638 10.93889 30191 ft 435 kts 288°
2026-04-15 20:58 50.52586 10.84951 30190 ft 435 kts 288°
2026-04-15 20:58 50.53566 10.80474 29858 ft 430 kts 289°
2026-04-15 20:58 50.54557 10.76047 29005 ft 430 kts 289°
2026-04-15 20:58 50.55562 10.71616 28089 ft 431 kts 289°
2026-04-15 20:59 50.56571 10.67188 27334 ft 429 kts 289°
2026-04-15 20:59 50.57574 10.62781 26646 ft 425 kts 289°
2026-04-15 20:59 50.58564 10.58419 26004 ft 421 kts 289°
2026-04-15 20:59 50.59544 10.54096 25367 ft 417 kts 289°
2026-04-15 21:00 50.60513 10.49813 24753 ft 414 kts 289°
2026-04-15 21:00 50.61472 10.45565 24154 ft 410 kts 289°
2026-04-15 21:00 50.62420 10.41354 23516 ft 406 kts 289°
2026-04-15 21:00 50.63249 10.37112 22818 ft 402 kts 283°
2026-04-15 21:01 50.63722 10.32855 22151 ft 398 kts 275°
2026-04-15 21:01 50.63788 10.28523 21491 ft 394 kts 266°
2026-04-15 21:01 50.63409 10.24277 20838 ft 390 kts 257°
2026-04-15 21:01 50.62585 10.20224 20194 ft 388 kts 248°
2026-04-15 21:02 50.61457 10.16385 19567 ft 385 kts 245°
2026-04-15 21:02 50.60220 10.12668 18954 ft 382 kts 243°
2026-04-15 21:02 50.58936 10.09034 18320 ft 379 kts 242°
2026-04-15 21:02 50.57640 10.05436 17638 ft 375 kts 242°
2026-04-15 21:03 50.56360 10.01882 16943 ft 372 kts 242°
2026-04-15 21:03 50.55115 9.98332 16286 ft 368 kts 244°
2026-04-15 21:03 50.54102 9.94658 15640 ft 364 kts 251°
2026-04-15 21:03 50.53283 9.90920 14996 ft 361 kts 253°
2026-04-15 21:04 50.52548 9.87170 14376 ft 357 kts 254°
2026-04-15 21:04 50.51864 9.83432 13733 ft 354 kts 255°
2026-04-15 21:04 50.51205 9.79710 13043 ft 352 kts 255°
2026-04-15 21:04 50.50555 9.76019 12363 ft 349 kts 255°
2026-04-15 21:05 50.49920 9.72341 11705 ft 347 kts 255°
2026-04-15 21:05 50.49297 9.68684 11067 ft 344 kts 255°
2026-04-15 21:05 50.48685 9.65106 10706 ft 333 kts 255°
2026-04-15 21:05 50.48097 9.61678 10468 ft 319 kts 255°
2026-04-15 21:06 50.47521 9.58380 10257 ft 306 kts 254°
2026-04-15 21:06 50.46951 9.55285 10083 ft 292 kts 254°
2026-04-15 21:06 50.46389 9.52293 9904 ft 280 kts 253°
2026-04-15 21:06 50.45850 9.49434 9729 ft 267 kts 253°
2026-04-15 21:07 50.45335 9.46710 9564 ft 254 kts 253°
2026-04-15 21:07 50.44841 9.44098 9316 ft 246 kts 253°
2026-04-15 21:07 50.44356 9.41542 8963 ft 243 kts 253°
2026-04-15 21:07 50.43877 9.39017 8593 ft 241 kts 253°
2026-04-15 21:08 50.43401 9.36510 8223 ft 239 kts 253°
2026-04-15 21:08 50.42928 9.34023 7854 ft 237 kts 253°
2026-04-15 21:08 50.42458 9.31556 7494 ft 235 kts 252°
2026-04-15 21:08 50.41992 9.29114 7229 ft 232 kts 252°
2026-04-15 21:09 50.41530 9.26691 7189 ft 233 kts 252°
2026-04-15 21:09 50.41023 9.24273 7181 ft 234 kts 250°
2026-04-15 21:09 50.40479 9.21867 7182 ft 234 kts 250°
2026-04-15 21:09 50.39923 9.19456 7181 ft 234 kts 250°
2026-04-15 21:10 50.39367 9.17055 7179 ft 234 kts 250°
2026-04-15 21:10 50.38811 9.14653 7184 ft 234 kts 250°
2026-04-15 21:10 50.38259 9.12277 7182 ft 234 kts 250°
2026-04-15 21:10 50.37703 9.09879 7180 ft 234 kts 250°
2026-04-15 21:11 50.37145 9.07479 7179 ft 234 kts 250°
2026-04-15 21:11 50.36586 9.05078 7183 ft 235 kts 250°
2026-04-15 21:11 50.36028 9.02679 7180 ft 234 kts 250°
2026-04-15 21:11 50.35469 9.00281 7180 ft 235 kts 250°
2026-04-15 21:12 50.34908 8.97877 7180 ft 235 kts 249°
2026-04-15 21:12 50.34338 8.95482 7183 ft 234 kts 248°
2026-04-15 21:12 50.33634 8.93184 7180 ft 234 kts 239°
2026-04-15 21:12 50.32702 8.91094 7163 ft 235 kts 230°
2026-04-15 21:13 50.31548 8.89286 6871 ft 235 kts 220°
2026-04-15 21:13 50.30203 8.87848 6536 ft 232 kts 209°
2026-04-15 21:13 50.28748 8.86827 6159 ft 228 kts 200°
2026-04-15 21:13 50.27207 8.86216 5659 ft 230 kts 191°
2026-04-15 21:14 50.26150 8.86047 5346 ft 231 kts 184°
2026-04-15 21:14 50.24024 8.86298 5010 ft 232 kts 171°
2026-04-15 21:14 50.22470 8.87024 4991 ft 235 kts 157°
2026-04-15 21:14 50.21152 8.88544 4989 ft 239 kts 131°
2026-04-15 21:15 50.20424 8.90863 4990 ft 242 kts 102°
2026-04-15 21:15 50.20504 8.93479 4991 ft 245 kts 72°
2026-04-15 21:15 50.21363 8.95710 4996 ft 245 kts 47°
2026-04-15 21:15 50.22103 8.97082 4988 ft 246 kts 55°
2026-04-15 21:16 50.23019 8.99345 4994 ft 246 kts 58°
2026-04-15 21:16 50.23929 9.01622 4989 ft 246 kts 57°
2026-04-15 21:16 50.24851 9.03885 4992 ft 247 kts 57°
2026-04-15 21:16 50.25764 9.06157 4987 ft 247 kts 60°
2026-04-15 21:17 50.26395 9.08590 4986 ft 245 kts 82°
2026-04-15 21:17 50.26225 9.11190 4988 ft 241 kts 114°
2026-04-15 21:17 50.25238 9.13253 4993 ft 236 kts 146°
2026-04-15 21:17 50.23750 9.14174 4988 ft 230 kts 178°
2026-04-15 21:18 50.22209 9.13718 4993 ft 226 kts 209°
2026-04-15 21:18 50.20950 9.12315 4992 ft 226 kts 221°
2026-04-15 21:18 50.19779 9.10670 4990 ft 227 kts 223°
2026-04-15 21:18 50.18621 9.08999 4988 ft 227 kts 224°
2026-04-15 21:19 50.17584 9.07160 4991 ft 226 kts 237°
2026-04-15 21:19 50.16864 9.04984 4993 ft 226 kts 248°
2026-04-15 21:19 50.16314 9.02678 4997 ft 226 kts 250°
2026-04-15 21:19 50.15784 9.00367 4997 ft 226 kts 250°
2026-04-15 21:20 50.15240 8.98066 5000 ft 226 kts 249°
2026-04-15 21:20 50.14687 8.95762 4997 ft 222 kts 249°
2026-04-15 21:20 50.14182 8.93646 5011 ft 199 kts 249°
2026-04-15 21:20 50.13725 8.91723 5038 ft 184 kts 249°
2026-04-15 21:21 50.13281 8.89858 5044 ft 184 kts 249°
2026-04-15 21:21 50.12836 8.87988 5048 ft 184 kts 249°
2026-04-15 21:21 50.12391 8.86120 5043 ft 184 kts 249°
2026-04-15 21:21 50.11949 8.84262 4909 ft 182 kts 249°
2026-04-15 21:22 50.11508 8.82411 4628 ft 182 kts 249°
2026-04-15 21:22 50.11067 8.80557 4303 ft 182 kts 249°
2026-04-15 21:22 50.10626 8.78707 4009 ft 182 kts 249°
2026-04-15 21:22 50.10189 8.76870 3736 ft 181 kts 249°
2026-04-15 21:23 50.09751 8.75034 3483 ft 181 kts 249°
2026-04-15 21:23 50.09315 8.73203 3223 ft 180 kts 249°
2026-04-15 21:23 50.08879 8.71374 2960 ft 180 kts 249°
2026-04-15 21:23 50.08441 8.69540 2708 ft 181 kts 249°
2026-04-15 21:24 50.08004 8.67707 2440 ft 180 kts 249°
2026-04-15 21:24 50.07574 8.65903 2179 ft 180 kts 249°
2026-04-15 21:24 50.07154 8.64142 1947 ft 164 kts 249°
2026-04-15 21:24 50.06770 8.62533 1709 ft 154 kts 249°
2026-04-15 21:25 50.06399 8.60977 1474 ft 154 kts 249°
2026-04-15 21:25 50.06025 8.59411 1268 ft 155 kts 249°
2026-04-15 21:25 50.05650 8.57838 1039 ft 155 kts 249°
2026-04-15 21:25 50.05273 8.56259 818 ft 156 kts 248°
2026-04-15 21:26 50.04896 8.54678 592 ft 156 kts 248°
2026-04-15 21:26 50.04519 8.53104 379 ft 154 kts 245°
2026-04-15 21:26 50.04170 8.51661 335 ft 128 kts 249°
2026-04-15 21:26 50.03910 8.50580 325 ft 70 kts 244°
2026-04-15 21:27 50.03724 8.50230 321 ft 26 kts 219°
2026-04-15 21:27 50.03642 8.50193 324 ft 5 kts 144°
2026-04-15 21:27 50.03626 8.50250 327 ft 8 kts 85°
2026-04-15 21:27 50.03662 8.50431 329 ft 26 kts 70°
2026-04-15 21:28 50.03735 8.50732 334 ft 25 kts 70°
2026-04-15 21:28 50.03795 8.50982 333 ft 26 kts 70°
2026-04-15 21:28 50.03871 8.51299 334 ft 36 kts 69°
2026-04-15 21:28 50.03971 8.51712 336 ft 45 kts 69°
2026-04-15 21:29 50.04086 8.52197 353 ft 49 kts 69°
2026-04-15 21:29 50.04200 8.52676 358 ft 46 kts 70°
2026-04-15 21:29 50.04309 8.53127 364 ft 43 kts 69°
2026-04-15 21:29 50.04395 8.53513 378 ft 34 kts 81°
2026-04-15 21:30 50.04419 8.53874 378 ft 33 kts 84°
2026-04-15 21:30 50.04444 8.54233 378 ft 33 kts 83°
2026-04-15 21:30 50.04432 8.54578 372 ft 34 kts 113°
2026-04-15 21:30 50.04283 8.54791 364 ft 6 kts 157°
2026-04-15 21:31 50.04282 8.54792 364 ft 0 kts 158°
2026-04-15 21:32 50.04241 8.54814 358 ft 17 kts 162°
2026-04-15 21:33 50.04105 8.54891 353 ft 22 kts 159°
2026-04-15 21:33 50.03968 8.54970 358 ft 21 kts 158°
2026-04-15 21:33 50.03852 8.55064 359 ft 17 kts 116°
2026-04-15 21:33 50.03878 8.55235 357 ft 18 kts 69°
2026-04-15 21:34 50.03941 8.55501 359 ft 30 kts 69°
2026-04-15 21:34 50.04006 8.55770 357 ft 11 kts 69°
2026-04-15 21:34 50.04045 8.55934 360 ft 21 kts 68°
2026-04-15 21:34 50.04093 8.56133 360 ft 13 kts 69°
2026-04-15 21:35 50.04102 8.56174 362 ft 0 kts 70°
2026-04-15 21:35 50.04124 8.56248 360 ft 12 kts 56°
2026-04-15 21:35 50.04191 8.56269 363 ft 11 kts 340°
2026-04-15 21:35 50.04280 8.56202 362 ft 16 kts 303°
2026-04-15 21:36 50.04331 8.56064 359 ft 15 kts 336°
2026-04-15 21:36 50.04426 8.56046 365 ft 14 kts 37°
2026-04-15 21:36 50.04472 8.56202 366 ft 22 kts 69°
2026-04-15 21:36 50.04528 8.56407 363 ft 16 kts 52°
2026-04-15 21:37 50.04626 8.56493 362 ft 16 kts 25°
2026-04-15 21:37 50.04713 8.56572 363 ft 8 kts 60°
2026-04-15 21:37 50.04703 8.56646 360 ft 7 kts 114°
2026-04-15 21:37 50.04693 8.56679 364 ft 3 kts 114°
2026-04-15 21:38 50.04689 8.56695 363 ft 1 kts 115°
2026-04-15 21:38 50.04687 8.56699 363 ft 0 kts 115°